Content
SEND FEEDBACK

Daily
Averages
Monthly
Summary
United States of America

ARNETT, OKLAHOMA


Home > North America > United States > Oklahoma
Elevation: 2455 feet     Latitude: 36 08N     Longitude: 099 46W

WEATHER
 
SELECT A DAY
Number of Records: 73,281;   Date Range: 1/1/95 - 8/28/14
 
SHARE

PRINT THIS DATA

[ ← Previous Day ]
WEATHER ALMANAC - FEBRUARY 13, 2013
[ Next Day → ]
[ °C ]   °F
Weather ElementAverageHighLow
Temperature27.4 °F39.9 °F (2:53 pm)15.1 °F (6:53 am)
Dewpoint21.6 °F28.9 °F (3:53 pm)10.9 °F (6:53 am)
Humidity79.4 %92 % (1:53 am)62 % (1:53 pm)
Barometer30.07 in30.13 in (8:53 am)30.00 in (5:53 pm)
Wind Speed8.7 mph12.7 mph (4:53 am)
Weather ElementAverage
Visibility9.9 mi
Wind DirectionWSW (250.9 °)

Weather ElementTotal
Precipitation---
Heating Degree Days37.5 (Base 65)
Averaged from 23 records on February 13, 2013
WEATHER CONDITIONS BREAKOUT
WIND DIRECTION BREAKOUT
WEATHER BY HOUR - FEBRUARY 13, 2013
[ °C ]   °F
Local TimeTemperatureDewpointHumidityBarometerVisibilityWind DirectionWind SpeedGust SpeedPrecipitationEventsConditions
1:53 AM23.0 °F21.0 °F92 %30.09 in9.0 miWSW (240°)10.4 mphClear
2:53 AM19.0 °F17.1 °F92 %30.08 in9.0 miWSW (250°)9.2 mphClear
3:53 AM18.0 °F16.0 °F92 %30.08 in9.0 miWSW (250°)9.2 mphClear
4:53 AM18.0 °F15.1 °F88 %30.06 in10.0 miWest (260°)12.7 mphClear
5:53 AM17.1 °F14.0 °F88 %30.08 in10.0 miWest (270°)9.2 mphClear
6:53 AM15.1 °F10.9 °F84 %30.11 in10.0 miSW (230°)6.9 mphClear
7:53 AM15.1 °F10.9 °F84 %30.12 in10.0 miWSW (240°)9.2 mphClear
8:53 AM19.9 °F16.0 °F85 %30.13 in10.0 miWSW (250°)6.9 mphClear
9:53 AM25.0 °F19.0 °F78 %30.12 in10.0 miWest (270°)10.4 mphClear
10:53 AM28.0 °F21.0 °F75 %30.12 in10.0 miWest (260°)11.5 mphClear
11:53 AM32.0 °F24.1 °F73 %30.12 in10.0 miWSW (250°)9.2 mphClear
12:53 PM35.1 °F25.0 °F67 %30.08 in10.0 miWSW (240°)8.1 mphClear
1:53 PM37.9 °F26.1 °F62 %30.04 in10.0 miWest (260°)5.8 mphClear
2:53 PM39.9 °F28.0 °F63 %30.03 in10.0 miWest (260°)6.9 mphClear
3:53 PM39.0 °F28.9 °F67 %30.02 in10.0 miWest (270°)4.6 mphClear
4:53 PM39.9 °F28.9 °F65 %30.01 in10.0 miWSW (240°)9.2 mphClear
5:53 PM37.0 °F28.9 °F73 %30.00 in10.0 miWest (270°)8.1 mphClear
6:53 PM32.0 °F27.0 °F82 %30.03 in10.0 miWSW (250°)6.9 mphClear
7:53 PM30.0 °F26.1 °F85 %30.04 in10.0 miWSW (240°)9.2 mphClear
8:53 PM27.0 °F23.0 °F85 %30.05 in10.0 miWSW (240°)5.8 mphClear
9:53 PM28.9 °F24.1 °F82 %30.05 in10.0 miWSW (250°)10.4 mphClear
10:53 PM28.0 °F23.0 °F81 %30.04 in10.0 miWSW (240°)10.4 mphClear
11:53 PM26.1 °F21.9 °F84 %30.05 in10.0 miWSW (240°)10.4 mphClear
Hourly data recorded from KGAG, located miles away from Arnett, Oklahoma







STORIES FROM OUR PARTNERS